Location: site
(53.0000°N, 23.0500°E)
Time: 19:13:37
(UTC+01:00)

SAOCOM 1-A - Pass Details

Date: 06 December 2020
Orbit: 621 x 623 km, 97.9° (Epoch: 24 January)

Event Time Altitude Azimuth Distance (km) Brightness Sun altitude
Exits shadow 16:53:23 20° 96° (E) 1,451 ? -14.2°
Drops below altitude 10° 16:56:20 10° 139° (SE) 1,993 ? -14.6°
Sets 16:59:01 0° 156° (SSE) 2,893 ? -15.0°
